sat.trackr.live / text

‹ back to catalog

STARLINK-34909

NORAD 65401 · 2025-191Y

PAYLOAD ACTIVE UNKNOWN

§ Identity

Operator
Country
US
Launch date
2025-08-30
Launch site
AFWTR
Launch vehicle
Mass (kg)
RCS (m²)

Purposes: comms

External: N2YO · Heavens-Above · Gunter

§ Orbital elements

Epoch: 2026-09-20T13:47:08.733696Z

Period
93.91 min
Inclination
97.2856°
Eccentricity
0.0002101
Mean motion
15.33459224 rev/d
Perigee alt
464.1 km
Apogee alt
466.9 km
Semi-major
6,843.6 km
B*
3.5572e-4
RAAN
129.6523°
Arg perigee
95.6565°
Mean anomaly
264.4917°
Rev number
5,966

§ Raw data

STARLINK-349091 65401U 25191Y   26263.57440664  .00011432  00000+0  35572-3 0  99942 65401  97.2856 129.6523 0002101  95.6565 264.4917 15.33459224 59660

JSON: /api/v1/satellites/65401 · /tle

For live sub-satellite position, see the globe view (requires WebGL).

§ Visibility from observer

Set your observer location to see the next 7 days of passes ≥ 10°. The values pass through the URL so the page stays shareable.

No JS? Fill the form by hand. The geolocation button needs JavaScript.